COSMOS 1275 DEB, 13812

Orbit data source: Space-Track

COSMOS 1275 DEB, 13812 is space debris in LEO originally from a launch on Thu, 04 Jun 1981 UTC launched from the Plesetsk Missile And Space Complex (PKMTR). Debris objects in space refer to the collection of defunct objects orbiting the Earth. Examples of debris include non-operational satellites, rocket bodies, and fragments generated from explosions, collisions, or faulty payload assembly.

Loading next visibility...
Identifier
13812, 1981-053HG
Orbit
LEO
Country
Flag of CISCIS
Related business
Manufacturer
Unknown
Mission
Spacecraft
Bus & Motor
Unknown
Mass
Unknown
Launch date (UTC)
1981-06-04 (44 years ago)
Launch vehicle
Unknown
Launch site
Plesetsk Missile And Space Complex (PKMTR)
Object type
Payload
Rocket body
Debris
Shape & HBR
Unknown shape, 0.1 m
Radar Cross Section
Small (<0.1 m²)

Expand to show TLE details & history
Last TLE update: 1 day ago

TLE from 1 day ago
0 COSMOS 1275 DEB
1 13812U 81053HG  25286.19469824  .00011967  00000-0  41141-2 0  9995
2 13812  83.2487 200.7515 0039171  12.0461 149.5984 14.35515281190324
Epoch: 2025-10-13T04:40Z
TLE epoch observation values (Epoch: 2025-10-13T04:40:21.927Z)
Latitude
17.99074°
Longitude
-73.53231°
Altitude
799.978 km
Speed
7.442 km/s
True Right ascension
01h 14m 14s
True Declination
17° 53' 26"
Sunlit
Object was in full shadow at epoch
Visualization orbit readout
Latitude
Unknown
Longitude
Unknown
Altitude
Unknown
Speed
Unknown
Apparent Right ascension
Unknown
Apparent Declination
Unknown
Sunlit
N/A
Visualization observer readout
Local Sidereal Time
23:45:38
Azimuth
Unknown
Elevation
Unknown
Doppler factor
Unknown
Orbital elements
Apogee altitude
798.41 km
Perigee altitude
742.407 km
Semi-major axis
7,148.545 km
Eccentricity
0.00392
Inclination
83.2487°
RAAN
200.7515°
Arg. of periapsis
12.0461°
True anomaly
149.8246°
Mean anomaly
149.5984°
Eccentric anomaly
149.71159°
Mean motion
3.59101 °/min
Orbital period
100.25 mins
BSTAR
0.0041141
Loading maneuver chart data...
Computing Atmospheric mass density...
Loading historical data...
Loading historical data...
Loading historical data...
Loading historical data...
Loading historical data...
Loading historical data...
Loading historical data...

Documentation

Showing up to 5 results
|